Location: Ocean City
(38.3360°N, 75.0850°W)
Time: 17:37:06
(UTC-05:00)

Explorer 11/Cluster Stage 4 - Pass Details

Date: 22 November 2019
Orbit: 467 x 1259 km, 28.8° (Epoch: 11 December)

Event Time Altitude Azimuth Distance (km) Brightness Sun altitude
Rises 19:23:41 0° 243° (WSW) 2,913 10.4 -31.1°
Reaches altitude 10° 19:26:04 10° 232° (SW) 2,120 9.4 -31.6°
Enters shadow 19:28:31 24° 207° (SSW) 1,514 8.2 -32.1°
Maximum altitude 19:30:24 30° 171° (S) 1,385 - -32.5°
Drops below altitude 10° 19:35:39 10° 113° (ESE) 2,595 - -33.5°
Sets 19:38:53 0° 104° (ESE) 3,690 - -34.1°
